Location: Marsån
(66.4167°N, 22.2833°E)
Time: 08:17:13
(UTC+00:00)

Cosmos 2237 - Pass Details

Date: 24 February 2024
Orbit: 846 x 855 km, 70.8° (Epoch: 20 April)

Event Time Altitude Azimuth Distance (km) Brightness Sun altitude
Rises 16:42:04 0° 307° (NW) 3,423 8.2 -8.5°
Reaches altitude 10° 16:44:31 10° 306° (NW) 2,486 7.5 -8.7°
Maximum altitude 16:50:13 77° 222° (SW) 878 4.4 -9.3°
Drops below altitude 10° 16:55:55 10° 137° (SE) 2,481 6.3 -9.8°
Enters shadow 16:58:18 - 136° (SE) 3,392 6.9 -10.1°
